Weather History for Summerville, SC

Change the Weather History Date:

Tuesday, October 15, 2013

  Actual Average (KCHS) Record (KCHS)
Temperature  
Mean Temperature 66 °F 67 °F  
Max Temperature 73 °F 77 °F 87 °F (1985)
Min Temperature 59 °F 57 °F 40 °F (1988)
Degree Days  
Heating Degree Days 0 2  
Month to date heating degree days 18  
Since 1 July heating degree days 21  
Cooling Degree Days 1 4  
Month to date cooling degree days 82  
Year to date cooling degree days 2220  
Growing Degree Days 16 (Base 50)    
Moisture  
Dew Point 60 °F    
Average Humidity 84    
Maximum Humidity 100    
Minimum Humidity 61    
Precipitation  
Precipitation 0.00 in 0.12 in 3.89 in (1954)
Month to date precipitation 2.11  
Year to date precipitation 43.85  
Sea Level Pressure  
Sea Level Pressure 30.07 in    
Wind  
Wind Speed 7 mph (NNE)    
Max Wind Speed 14 mph    
Max Gust Speed 18 mph    
Visibility 10 miles    
Events      
T = Trace of Precipitation, MM = Missing Value Source: NWS Daily Summary

Daily Weather History Graph

Daily Weather History Graph

Search for Another Location

Airport:

Trip Planner

Search our weather history database for the weather conditions in past years. The results will help you decide how hot, cold, wet, or windy it might be!

Date:

Astronomy

Oct. 15, 2013 Rise Set
Actual Time 7:25 AM EDT 6:47 PM EDT
Civil Twilight 7:00 AM EDT 7:12 PM EDT
Nautical Twilight 6:31 AM EDT 7:41 PM EDT
Astronomical Twilight 6:03 AM EDT 8:09 PM EDT
Moon 4:43 PM EDT (10/15) 3:56 AM EDT (10/15)
Length of Visible Light 12h 11m
Length of Day
11h 21m
Waxing Gibbous, 87% of the Moon is Illuminated
Oct 15
Waxing Gibbous
Oct 18
Full
Oct 26
Last Quarter
Nov 3
New
Nov 10
First Quarter

Hourly Weather History & Observations

Time (EDT) Temp. Dew Point Humidity Pressure Visibility Wind Dir Wind Speed Gust Speed Precip Events Conditions
12:15 AM 66.2 °F 64.4 °F 94% 30.12 in 10.0 mi North 9.2 mph - N/A   Overcast
12:35 AM 66.2 °F 64.4 °F 94% 30.12 in 10.0 mi North 6.9 mph - N/A   Overcast
12:55 AM 66.2 °F 64.4 °F 94% 30.11 in 10.0 mi North 6.9 mph - N/A   Overcast
1:15 AM 66.2 °F 64.4 °F 94% 30.09 in 10.0 mi NNE 6.9 mph - N/A   Overcast
1:35 AM 66.2 °F 62.6 °F 88% 30.09 in 10.0 mi NNE 8.1 mph - N/A   Overcast
1:55 AM 66.2 °F 62.6 °F 88% 30.10 in 10.0 mi North 4.6 mph - N/A   Overcast
2:15 AM 66.2 °F 62.6 °F 88% 30.10 in 10.0 mi North 8.1 mph - N/A   Overcast
2:35 AM 66.2 °F 62.6 °F 88% 30.10 in 10.0 mi North 9.2 mph - N/A   Overcast
2:55 AM 64.4 °F 62.6 °F 94% 30.09 in 10.0 mi North 6.9 mph - N/A   Overcast
3:15 AM 64.4 °F 62.6 °F 94% 30.09 in 10.0 mi North 6.9 mph - N/A   Overcast
3:35 AM 64.4 °F 62.6 °F 94% 30.09 in 10.0 mi North 6.9 mph - N/A   Overcast
3:55 AM 64.4 °F 62.6 °F 94% 30.09 in 10.0 mi North 9.2 mph - N/A   Overcast
4:15 AM 64.4 °F 62.6 °F 94% 30.09 in 10.0 mi North 6.9 mph - N/A   Overcast
4:35 AM 64.4 °F 60.8 °F 88% 30.09 in 10.0 mi North 8.1 mph - N/A   Overcast
4:55 AM 64.4 °F 60.8 °F 88% 30.09 in 10.0 mi North 6.9 mph - N/A   Overcast
5:15 AM 62.6 °F 60.8 °F 94% 30.09 in 10.0 mi North 9.2 mph - N/A   Overcast
5:35 AM 62.6 °F 60.8 °F 94% 30.09 in 10.0 mi North 6.9 mph - N/A   Overcast
5:55 AM 62.6 °F 60.8 °F 94% 30.09 in 10.0 mi North 4.6 mph - N/A   Overcast
6:15 AM 62.6 °F 60.8 °F 94% 30.09 in 10.0 mi North 6.9 mph - N/A   Overcast
6:35 AM 62.6 °F 59.0 °F 88% 30.10 in 10.0 mi North 5.8 mph - N/A   Overcast
6:55 AM 62.6 °F 59.0 °F 88% 30.10 in 10.0 mi North 5.8 mph - N/A   Overcast
7:15 AM 62.6 °F 59.0 °F 88% 30.11 in 10.0 mi North 8.1 mph - N/A   Overcast
7:35 AM 62.6 °F 59.0 °F 88% 30.11 in 10.0 mi North 8.1 mph - N/A   Overcast
7:55 AM 62.6 °F 59.0 °F 88% 30.11 in 10.0 mi North 6.9 mph - N/A   Overcast
8:15 AM 62.6 °F 59.0 °F 88% 30.11 in 10.0 mi NNE 6.9 mph - N/A   Overcast
8:35 AM 62.6 °F 59.0 °F 88% 30.12 in 10.0 mi NNE 6.9 mph - N/A   Overcast
8:55 AM 62.6 °F 59.0 °F 88% 30.11 in 10.0 mi North 10.4 mph - N/A   Overcast
9:15 AM 62.6 °F 59.0 °F 88% 30.12 in 10.0 mi North 8.1 mph - N/A   Overcast
9:35 AM 62.6 °F 59.0 °F 88% 30.12 in 10.0 mi NNE 9.2 mph - N/A   Overcast
9:55 AM 62.6 °F 59.0 °F 88% 30.12 in 10.0 mi NNE 6.9 mph - N/A   Overcast
10:15 AM 62.6 °F 59.0 °F 88% 30.12 in 10.0 mi North 12.7 mph 16.1 mph N/A   Overcast
10:35 AM 64.4 °F 57.2 °F 77% 30.12 in 10.0 mi North 13.8 mph 18.4 mph N/A   Overcast
10:55 AM 64.4 °F 57.2 °F 77% 30.12 in 10.0 mi NNE 11.5 mph 17.3 mph N/A   Overcast
11:15 AM 66.2 °F 59.0 °F 78% 30.11 in 10.0 mi North 10.4 mph 17.3 mph N/A   Overcast
11:35 AM 68.0 °F 57.2 °F 68% 30.10 in 10.0 mi North 10.4 mph 16.1 mph N/A   Mostly Cloudy
11:55 AM 69.8 °F 59.0 °F 68% 30.09 in 10.0 mi North 10.4 mph - N/A   Mostly Cloudy
12:15 PM 68.0 °F 59.0 °F 73% 30.10 in 10.0 mi NNE 10.4 mph 17.3 mph N/A   Scattered Clouds
12:35 PM 69.8 °F 57.2 °F 64% 30.09 in 10.0 mi NNE 10.4 mph - N/A   Clear
12:55 PM 69.8 °F 57.2 °F 64% 30.08 in 10.0 mi North 11.5 mph - N/A   Clear
1:15 PM 69.8 °F 57.2 °F 64% 30.08 in 10.0 mi NNE 8.1 mph - N/A   Clear
1:35 PM 71.6 °F 59.0 °F 64% 30.07 in 10.0 mi NE 5.8 mph - N/A   Clear
1:55 PM 73.4 °F 59.0 °F 61% 30.06 in 10.0 mi NNW 6.9 mph - N/A   Clear
2:15 PM 73.4 °F 59.0 °F 61% 30.05 in 10.0 mi NE 4.6 mph - N/A   Clear
2:35 PM 73.4 °F 59.0 °F 61% 30.04 in 10.0 mi North 8.1 mph - N/A   Clear
2:55 PM 73.4 °F 59.0 °F 61% 30.04 in 10.0 mi NNE 8.1 mph - N/A   Clear
3:15 PM 73.4 °F 59.0 °F 61% 30.03 in 10.0 mi NNE 6.9 mph - N/A   Clear
3:35 PM 73.4 °F 59.0 °F 61% 30.03 in 10.0 mi North 6.9 mph - N/A   Clear
3:55 PM 73.4 °F 59.0 °F 61% 30.03 in 10.0 mi NNE 9.2 mph - N/A   Clear
4:15 PM 73.4 °F 59.0 °F 61% 30.03 in 10.0 mi NNE 5.8 mph - N/A   Clear
4:35 PM 73.4 °F 59.0 °F 61% 30.02 in 10.0 mi NNE 6.9 mph - N/A   Clear
4:55 PM 73.4 °F 59.0 °F 61% 30.02 in 10.0 mi North 4.6 mph - N/A   Clear
5:15 PM 73.4 °F 60.8 °F 65% 30.02 in 10.0 mi North 4.6 mph - N/A   Clear
5:35 PM 73.4 °F 60.8 °F 65% 30.01 in 10.0 mi NNE 3.5 mph - N/A   Clear
5:55 PM 73.4 °F 60.8 °F 65% 30.01 in 10.0 mi NE 3.5 mph - N/A   Clear
6:15 PM 71.6 °F 60.8 °F 69% 30.02 in 10.0 mi Calm Calm - N/A   Clear
6:35 PM 68.0 °F 62.6 °F 83% 30.02 in 10.0 mi Calm Calm - N/A   Clear
6:55 PM 66.2 °F 62.6 °F 88% 30.03 in 10.0 mi Calm Calm - N/A   Clear
7:15 PM 64.4 °F 62.6 °F 94% 30.03 in 10.0 mi Calm Calm - N/A   Clear
7:35 PM 64.4 °F 62.6 °F 94% 30.03 in 10.0 mi Calm Calm - N/A   Clear
7:55 PM 62.6 °F 62.6 °F 100% 30.03 in 10.0 mi Calm Calm - N/A   Clear
8:15 PM 62.6 °F 62.6 °F 100% 30.04 in 10.0 mi Calm Calm - N/A   Clear
8:55 PM 60.8 °F 60.8 °F 100% 30.04 in 10.0 mi Calm Calm - N/A   Clear
9:15 PM 60.8 °F 60.8 °F 100% 30.04 in 10.0 mi Calm Calm - N/A   Clear
9:35 PM 60.8 °F 60.8 °F 100% 30.05 in 10.0 mi Calm Calm - N/A   Clear
9:55 PM 60.8 °F 60.8 °F 100% 30.04 in 10.0 mi Calm Calm - N/A   Clear
10:15 PM 60.8 °F 60.8 °F 100% 30.05 in 10.0 mi Calm Calm - N/A   Clear
10:35 PM 60.8 °F 60.8 °F 100% 30.05 in 10.0 mi Calm Calm - N/A   Clear
10:55 PM 60.8 °F 60.8 °F 100% 30.04 in 10.0 mi Calm Calm - N/A   Clear
11:15 PM 59.0 °F 59.0 °F 100% 30.04 in 10.0 mi Calm Calm - N/A   Clear
11:35 PM 59.0 °F 59.0 °F 100% 30.04 in 10.0 mi Calm Calm - N/A   Clear
11:55 PM 59.0 °F 59.0 °F 100% 30.03 in 10.0 mi Calm Calm - N/A   Mostly Cloudy